Zurück zum Katalog

COSMOS 1823 DEB

AktivLEO
NORAD 18751·DEBRIS·🇷🇺 Russia

Gestartet Feb 20, 1987 von Plesetsk Cosmodrome

Loading…

Nächste Überflüge (nächste 24 Stunden)

TLE

AktuellSource: Space-Track

Epoche: Sep 14, 2026, 09:07 UTC

1 18751U 87020AC  26257.38004782  .00000017  00000-0  27236-3 0  9994
2 18751  73.6265 261.3168 0076146  29.9447  35.6257 12.33031830743229

Verfolge COSMOS 1823 DEB in Echtzeit mit AllMySat

Download on the App Store